Location: Avully
(45.9633°N, 6.0228°E)
Time: 20:22:33
(UTC+00:00)

Cosmos 2360 Rocket - Pass Details

Date: 16 August 2024
Orbit: 834 x 843 km, 71.0° (Epoch: 10 September)

Event Time Altitude Azimuth Distance (km) Brightness Sun altitude
Exits shadow 21:39:17 13° 71° (ENE) 2,271 4.3 -24.7°
Drops below altitude 10° 21:40:17 10° 62° (ENE) 2,466 4.6 -24.8°
Sets 21:43:40 0° 42° (NE) 3,405 5.6 -25.1°
